Tracking 27188 objects as of 1-Apr-2023
HD Live streaming from Space Station
objects crossing your sky now

STARLINK-5218

Track STARLINK-5218 now!
10-day predictions
STARLINK-5218 is classified as:


NORAD ID: 55636
Int'l Code: 2023-021J
Perigee: 465.5 km
Apogee: 470.2 km
Inclination: 70.0 °
Period: 93.8 minutes
Semi major axis: 6838 km
RCS: Unknown
Launch date: February 17, 2023
Source: United States (US)
Launch site: AIR FORCE WESTERN TEST RANGE (AFWTR)
Your satellite tracking list
Your tracking list is empty




NASA's NSSDC Master Catalog

Two Line Element Set (TLE):
1 55636U 23021J   23091.25001157 -.01162605  00000-0 -37389-1 0  9993
2 55636  70.0021  31.9919 0003391 272.7511  19.0734 15.35068451  7177
Source of the keplerian elements: AFSPC